839  
ASUS42 KMHX 020513  
RWRMHX  
WEATHER ROUNDUP FOR EASTERN NORTH CAROLINA  
NATIONAL WEATHER SERVICE NEWPORT/MOREHEAD CITY NC  
100 AM EDT THU JUL 02 2015  
 
NOTE: "FAIR" INDICATES FEW OR NO CLOUDS BELOW 12,000 FEET  
WITH NO SIGNIFICANT WEATHER AND/OR S TO VISIBILITY
 
 
NCZ015>017-031-032-045>047-102-103-020600-  
NORTH COAST  
 
CITY SKY/WX TMP DP RH WIND PRES REMARKS
 
EDENTON NOT AVBL  
ELIZABETH CITY CLEAR 76 72 87 SW10 29.94S  
KITTY HAWK NOT AVBL  
MANTEO NOT AVBL  
 

 
 
NCZ045>047-081-094-103-104-020600-  
CENTRAL COAST  
 
CITY SKY/WX TMP DP RH WIND PRES REMARKS
 
FRISCO CLEAR 79 75 87 W10 29.96S  
SWANQUARTER N/A 79 N/A N/A SW8 29.91F  
 

 
 
NCZ095-097-098-100-101-020600-  
SOUTHERN COAST  
 
CITY SKY/WX TMP DP RH WIND PRES REMARKS
 
BEAUFORT CLEAR 79 76 90 SW12 29.97F  
CEDAR ISLAND N/A 77 N/A N/A S8 30.00S  
JACKSONVILLE PTCLDY 76 72 87 SW6 29.96F  
PINEY ISLAND PTCLDY N/A N/A N/A SW8 29.97S  
WILMINGTON CLEAR 77 72 84 S6 29.98F  
 

 
 
NCZ011>013-027>030-043-044-078>080-089-090>093-098-020600-  
COASTAL PLAIN  
 
CITY SKY/WX TMP DP RH WIND PRES REMARKS
 
AHOSKIE MOCLDY 73 69 89 CALM 29.93F  
CLINTON NOT AVBL  
ELIZABETHTOWN NOT AVBL  
GOLDSBORO PTCLDY 75 72 90 S5 29.93F  
GREENVILLE CLEAR 75 72 88 SW6 29.96F  
HAVELOCK PTCLDY 76 73 91 SW6 29.98F  
KENANSVILLE NOT AVBL  
KINSTON NOT AVBL  
NEW BERN PTCLDY 75 72 90 SW5 29.98S  
RICHLANDS CLEAR 73 68 83 S6 29.97F  
ROCKY MOUNT MOCLDY 77 72 84 SW6 29.93F  
WASHINGTON NOT AVBL  
WHITEVILLE NOT AVBL  
 

 
 
AMZ130-135-150-152-154-156-158-170-250-252-270-ANZ085-086-088-633-658-670-020600-  
MARINE OBSERVATIONS  
 
STATION/POSITION TIME TEMP WIND PRES WAVE SWELL
 
AIR SEA DIR/SP/G HT/PER HT/PER  
(UTC) (F) (DEG/KT/KT) (MB) (FT/S) (FT/S)  
CHESAPEAKE LIGHT 0500 79 230/ 14/ 15 1013.6  
64 E VA BEACH 0450 78 77 210/ 10/ 12 1013.0 5/ 8 5/ 8  
DUCK 0400 80 63 240/ 11/ 14 1012.7  
2 E DUCK 0411 69 N/A 2/ 8  
OREGON INLET 0400 79 80 230/ 11/ 12 1013.9  
13E OREGON INLT 0500 74 N/A 4/ 8  
HATTERAS CG 0400 77 81 220/ 8/ 13 1014.3  
DIAMOND BUOY 0450 80 82 240/ 17/ 19 1014.4 5/ 8 3/ 8  
CAPE LOOKOUT 0500 79 250/ 11/ 17 1014.8  
BEAUFORT LAB 0400 80 81 240/ 7/ 12 1014.4  
30 SE NEW RVR IN 0408 80 80 250/ 16/ 21 1015.6  
27 SE WRIGHTSVLE 0400 80 250/ 16/ 17 N/A  
5 SE WRIGHTSVLE NOT AVBL  
225 S CAPE HAT 0450 82 80 240/ 16/ 17 1018.8 6/ 8 3/ 8  
41 SE CHARLESTON 0450 77 82 180/ 17/ 21 1016.4 4/ 6 2/ 8  
 

 
 
CLICK HERE TO GO TO PREVIOUS BULLETINS.

The Nexlab NC Page Main Text Page